Location: Unspecified
(0.0000°N, 0.0000°E)
Time: 08:41:50
(UTC+00:00)

Courier 1B - Visible Passes

Search period start: 25 June 2017 00:00
Search period end: 05 July 2017 00:00
Orbit: 962 x 1209 km, 28.3° (Epoch: 24 June)

Date Brightness Start Highest point End Pass type
(mag) Time Alt. Az. Time Alt. Az. Time Alt. Az.
25 Jun 10.1 05:23:41 10° NNW 05:28:06 18° NNE 05:32:40 10° ENE visible
25 Jun 7.9 18:49:52 10° SW 18:56:50 49° SSE 19:03:07 11° ENE visible
25 Jun 8.4 20:44:21 10° WSW 20:50:07 45° NW 20:50:07 45° NW visible
26 Jun 10.2 04:31:23 10° N 04:34:02 12° NNE 04:36:43 10° NE visible
26 Jun 7.9 19:50:07 10° WSW 19:57:11 67° NNW 20:01:05 26° NE visible
26 Jun 10.1 21:46:58 10° WNW 21:48:05 13° WNW 21:48:05 13° WNW visible
27 Jun 9.6 05:28:57 10° NNW 05:34:50 30° NNE 05:41:01 10° E visible
27 Jun 7.7 18:56:02 10° WSW 19:03:23 88° SE 19:10:13 10° ENE visible
27 Jun 9.3 20:51:56 10° W 20:57:34 26° NNW 20:59:04 24° N visible
28 Jun 9.8 04:35:57 10° NNW 04:40:55 22° NNE 04:46:05 10° ENE visible
28 Jun 8.9 19:57:14 10° W 20:03:43 37° NNW 20:09:51 10° NE visible
29 Jun 10.0 03:43:16 10° N 03:46:57 15° NNE 03:50:42 10° ENE visible
29 Jun 8.5 05:34:48 10° NW 05:41:23 54° NNE 05:48:25 10° ESE visible
29 Jun 8.5 19:02:45 10° WSW 19:09:52 52° NNW 19:16:32 10° NE visible
29 Jun 10.0 21:00:39 10° WNW 21:04:22 15° NNW 21:07:49 10° N visible
30 Jun 10.2 02:51:35 10° N 02:52:53 11° NNE 02:54:11 10° NE visible
30 Jun 9.0 04:41:28 10° NW 04:47:34 38° NNE 04:54:00 10° E visible
30 Jun 9.8 20:05:12 10° WNW 20:10:22 21° NNW 20:15:20 10° NNE visible
01 Jul 9.3 03:48:19 10° NNW 03:53:44 27° NNE 03:59:21 10° E visible
01 Jul 9.5 19:10:12 10° W 19:16:25 29° NNW 19:22:20 10° NNE visible
02 Jul 9.6 02:58:31 18° N 02:59:51 19° NNE 03:04:25 10° ENE visible
02 Jul 7.9 04:47:31 10° NW 04:54:06 70° NNE 05:01:04 10° ESE visible
02 Jul 10.2 20:14:39 10° NW 20:17:16 12° NNW 20:19:52 10° N visible
03 Jul 8.3 03:56:30 23° NNW 04:00:20 49° NNE 04:06:53 10° ESE visible
03 Jul 10.1 19:18:36 10° WNW 19:23:10 17° NNW 19:27:35 10° NNE visible
04 Jul 8.9 03:07:29 33° NE 03:07:29 33° NE 03:12:31 10° E visible
04 Jul 7.6 04:54:28 12° WNW 05:00:37 65° SSW 05:07:31 10° SE visible
04 Jul 10.0 18:23:16 10° WNW 18:29:06 24° NNW 18:34:42 10° NNE visible
